Weather History for Christchurch, New Zealand

Change the Weather History Date:

Wednesday, November 6, 2013

  Actual Average Record
Temperature  
Mean Temperature 53 °F -  
Max Temperature 55 °F 62 °F 75 °F (1998)
Min Temperature 51 °F 43 °F 28 °F (2008)
Degree Days  
Heating Degree Days 12    
Growing Degree Days 3 (Base 50)    
Moisture  
Dew Point 50 °F    
Average Humidity 88    
Maximum Humidity 94    
Minimum Humidity 77    
Precipitation  
Precipitation 0.00 in - - ()
Sea Level Pressure  
Sea Level Pressure 30.10 in    
Wind  
Wind Speed 12 mph ()    
Max Wind Speed 17 mph    
Max Gust Speed -    
Visibility 6.0 miles    
Events Rain    
Averages and records for this station are not official NWS values.
T = Trace of Precipitation, MM = Missing Value Source: Averaged Metar Reports

Daily Weather History Graph

Daily Weather History Graph

Search for Another Location

Airport:

Trip Planner

Search our weather history database for the weather conditions in past years. The results will help you decide how hot, cold, wet, or windy it might be!

Date:

Astronomy

Nov. 06, 2013 Rise Set
Actual Time 6:05 AM NZDT 8:21 PM NZDT
Civil Twilight 5:34 AM NZDT 8:53 PM NZDT
Nautical Twilight 4:55 AM NZDT 9:32 PM NZDT
Astronomical Twilight 4:11 AM NZDT 10:16 PM NZDT
Moon 8:03 AM NZDT (11/6) 11:14 PM NZDT (11/6)
Length of Visible Light 15h 19m
Length of Day
14h 15m
Waxing Crescent, 8% of the Moon is Illuminated
Nov 6
Waxing Crescent
Nov 10
First Quarter
Nov 18
Full
Nov 26
Last Quarter
Dec 3
New

Hourly Weather History & Observations

Time (NZDT) Temp. Dew Point Humidity Pressure Visibility Wind Dir Wind Speed Gust Speed Precip Events Conditions
12:00 AM 55.4 °F 50.0 °F 82% 30.06 in 6.2 mi SW 12.7 mph - N/A   Overcast
12:30 AM 55.4 °F 51.8 °F 88% 30.06 in 6.2 mi SW 12.7 mph - N/A   Overcast
1:00 AM 55.4 °F 50.0 °F 82% 30.06 in 6.2 mi SW 13.8 mph - N/A   Overcast
1:30 AM 53.6 °F 50.0 °F 88% 30.06 in 6.2 mi SW 13.8 mph - N/A   Overcast
2:00 AM 53.6 °F 50.0 °F 88% 30.06 in 6.2 mi SW 15.0 mph - N/A   Overcast
2:30 AM 53.6 °F 50.0 °F 88% 30.06 in 6.2 mi SW 15.0 mph - N/A   Overcast
3:00 AM 53.6 °F 50.0 °F 88% 30.06 in 6.2 mi SW 16.1 mph - N/A   Overcast
3:30 AM 53.6 °F 51.8 °F 94% 30.06 in 6.2 mi SW 15.0 mph - N/A   Overcast
4:00 AM 53.6 °F 50.0 °F 88% 30.09 in 6.2 mi SW 12.7 mph - N/A   Mostly Cloudy
4:30 AM 53.6 °F 50.0 °F 88% 30.09 in 6.2 mi SW 16.1 mph - N/A   Overcast
5:00 AM 51.8 °F 50.0 °F 94% 30.09 in 6.2 mi SW 13.8 mph - N/A   Overcast
5:30 AM 51.8 °F 50.0 °F 94% 30.09 in 6.2 mi SW 13.8 mph - N/A   Overcast
6:00 AM 51.8 °F 50.0 °F 94% 30.09 in 6.2 mi SW 12.7 mph - N/A   Overcast
7:00 AM 51.8 °F 50.0 °F 94% 30.12 in 6.2 mi SW 11.5 mph - N/A   Overcast
7:30 AM 51.8 °F 50.0 °F 94% 30.12 in 5.6 mi SW 11.5 mph - N/A   Overcast
8:00 AM 51.8 °F 50.0 °F 94% 30.12 in 3.7 mi SW 12.7 mph - N/A   Light Drizzle
8:30 AM 51.8 °F 50.0 °F 94% 30.12 in 4.3 mi SW 12.7 mph - N/A Rain Light Rain Showers
9:00 AM 51.8 °F 50.0 °F 94% 30.15 in 4.3 mi SW 12.7 mph - N/A   Light Drizzle
9:30 AM 51.8 °F 50.0 °F 94% 30.15 in 5.0 mi SW 15.0 mph - N/A   Light Drizzle
10:00 AM 53.6 °F 51.8 °F 94% 30.15 in 6.2 mi SW 16.1 mph - N/A   Mostly Cloudy
10:30 AM 51.8 °F 50.0 °F 94% 30.15 in 6.2 mi SW 17.3 mph - N/A   Overcast
11:00 AM 53.6 °F 51.8 °F 94% 30.15 in 6.2 mi SSW 12.7 mph - N/A   Overcast
11:30 AM 53.6 °F 50.0 °F 88% 30.15 in 6.2 mi SSW 13.8 mph - N/A   Overcast
12:00 PM 53.6 °F 50.0 °F 88% 30.15 in 6.2 mi SSW 15.0 mph - N/A   Overcast
12:30 PM 53.6 °F 51.8 °F 94% 30.15 in 5.6 mi SSW 13.8 mph - N/A   Light Drizzle
1:00 PM 53.6 °F 51.8 °F 94% 30.12 in 5.6 mi SSW 13.8 mph - N/A   Mostly Cloudy
1:30 PM 53.6 °F 50.0 °F 88% 30.12 in 6.2 mi SW 15.0 mph - N/A   Mostly Cloudy
2:00 PM 55.4 °F 50.0 °F 82% 30.12 in 6.2 mi South 12.7 mph - N/A   Overcast
2:30 PM 55.4 °F 50.0 °F 82% 30.12 in 6.2 mi South 12.7 mph - N/A   Overcast
3:00 PM 55.4 °F 50.0 °F 82% 30.09 in 6.2 mi SSW 13.8 mph - N/A   Overcast
3:30 PM 55.4 °F 50.0 °F 82% 30.09 in 6.2 mi SSW 13.8 mph - N/A   Overcast
4:00 PM 55.4 °F 50.0 °F 82% 30.09 in 6.2 mi South 13.8 mph - N/A   Overcast
4:30 PM 53.6 °F 50.0 °F 88% 30.09 in 6.2 mi SSW 13.8 mph - N/A   Overcast
5:00 PM 55.4 °F 50.0 °F 82% 30.09 in 6.2 mi SSW 15.0 mph - N/A   Overcast
5:30 PM 53.6 °F 48.2 °F 82% 30.09 in 6.2 mi South 12.7 mph - N/A   Overcast
6:00 PM 55.4 °F 48.2 °F 77% 30.09 in 6.2 mi SW 11.5 mph - N/A   Overcast
6:30 PM 53.6 °F 50.0 °F 88% 30.09 in 6.2 mi WSW 9.2 mph - N/A   Overcast
7:00 PM 53.6 °F 48.2 °F 82% 30.06 in 6.2 mi SSW 9.2 mph - N/A   Mostly Cloudy
7:30 PM 53.6 °F 48.2 °F 82% 30.09 in 6.2 mi SW 10.4 mph - N/A   Overcast
8:00 PM 53.6 °F 48.2 °F 82% 30.09 in 6.2 mi SW 9.2 mph - N/A   Overcast
8:30 PM 51.8 °F 48.2 °F 88% 30.09 in 6.2 mi SW 5.8 mph - N/A   Overcast
9:00 PM 51.8 °F 48.2 °F 88% 30.09 in 6.2 mi SW 4.6 mph - N/A   Mostly Cloudy
9:30 PM 51.8 °F 48.2 °F 88% 30.09 in 6.2 mi WSW 2.3 mph - N/A   Overcast
10:00 PM 51.8 °F 48.2 °F 88% 30.09 in 6.2 mi WSW 3.5 mph - N/A   Overcast
10:30 PM 51.8 °F 48.2 °F 88% 30.09 in 6.2 mi WSW 4.6 mph - N/A   Overcast
11:00 PM 51.8 °F 48.2 °F 88% 30.09 in 6.2 mi WSW 5.8 mph - N/A   Overcast
11:30 PM 51.8 °F 48.2 °F 88% 30.09 in 6.2 mi SW 8.1 mph - N/A   Overcast